Theta_e
312 311 312 311 313 312 312 312 311 313 314 315 314 315 314 314 313 312 315 316 317 317 317 317 317 316 315 313 312 311 309 308 307 305 304 302 302 301 300 300 299 299 299 298
313 313 312 312 311 313 313 313 312 313 312 312 312 313 314 311 313 315 314 315 316 317 317 316 316 316 314 314 312 310 309 308 307 306 306 304 304 301 301 300 298 298 298 297
312 312 313 314 314 314 313 312 313 312 312 311 311 311 312 311 313 315 316 317 316 316 316 316 315 315 314 313 312 311 309 309 308 307 305 303 300 299 299 298 298 298 297 297
311 312 312 312 313 313 314 311 312 313 313 313 311 314 311 312 311 311 313 315 317 316 316 315 314 314 314 313 312 311 309 309 308 306 304 304 304 304 304 302 301 299 297 296
312 313 311 312 313 311 314 312 311 313 312 312 314 314 314 312 311 311 311 315 316 317 316 315 314 313 314 313 312 311 309 308 307 306 305 304 303 302 302 300 299 298 297 296
309 311 312 311 310 311 310 312 311 310 309 313 312 313 312 310 312 311 312 314 316 317 316 313 313 313 313 312 310 310 309 308 307 306 306 305 304 302 301 300 298 297 297 296
309 309 309 310 312 309 310 311 312 311 310 314 310 311 314 311 310 310 311 315 317 317 313 314 314 313 313 312 310 309 308 307 307 307 306 306 305 303 301 300 299 297 297 296
310 311 309 308 311 310 308 312 311 310 312 313 308 311 311 311 312 314 315 317 316 313 313 314 313 313 312 311 310 308 307 307 307 307 306 306 305 304 301 300 299 298 297 297
310 310 309 308 309 310 310 311 311 313 298 308 313 310 310 310 309 307 308 310 311 313 313 313 312 311 311 310 310 310 309 308 307 308 306 306 305 304 303 301 299 297 296 295
311 312 310 307 307 308 309 308 311 310 311 310 313 311 313 311 311 310 308 306 310 312 312 312 311 311 311 310 310 309 309 309 308 307 305 306 306 305 302 300 299 297 295 293
309 311 312 306 307 309 307 309 309 309 311 315 314 313 310 308 308 310 308 310 310 311 311 311 311 311 310 309 309 310 309 309 308 307 306 305 306 305 302 301 299 297 294 293
310 311 313 311 308 306 308 310 311 312 312 310 312 313 313 310 307 308 309 311 311 311 311 312 311 311 310 310 309 310 309 308 308 307 306 306 304 303 301 300 299 296 294 292
312 311 315 313 312 306 307 307 308 310 310 313 313 313 312 311 307 308 307 310 310 310 311 312 311 312 312 312 311 310 310 309 308 307 306 304 303 302 301 300 298 295 293 292
311 310 313 317 315 312 311 309 308 310 311 312 311 312 311 311 311 311 312 312 312 311 312 312 313 312 312 311 310 310 309 309 309 307 306 304 303 302 300 299 297 294 292 291
312 313 312 312 312 313 313 313 312 312 312 314 313 312 310 310 310 310 310 310 310 310 311 311 312 311 311 311 311 310 309 309 309 308 305 304 303 301 299 298 295 293 292 291
310 314 314 314 312 312 313 312 312 313 312 312 312 313 312 312 312 312 313 312 310 310 310 311 311 312 312 312 311 311 310 309 308 307 305 303 302 300 299 296 294 292 291 290
312 311 314 315 312 312 313 313 313 312 312 312 313 312 311 311 311 311 312 311 311 311 311 311 312 312 312 311 311 311 310 310 308 306 305 303 301 300 298 296 294 292 291 289
310 310 312 315 314 315 312 310 310 311 311 311 311 311 311 311 311 311 311 311 311 311 311 311 311 311 311 310 310 309 308 308 307 305 303 302 301 299 297 295 293 291 290 288
309 311 313 314 315 313 312 310 310 310 311 310 310 310 311 311 311 310 309 307 307 308 310 311 311 310 309 309 308 308 308 308 307 306 304 302 300 298 296 293 292 290 288 287
309 310 312 314 316 316 311 304 306 310 312 302 302 303 304 304 309 309 303 302 303 304 305 305 306 307 307 307 306 307 307 307 307 306 304 301 299 297 295 293 290 289 287 286
304 308 310 311 312 313 301 301 304 311 307 300 299 300 301 303 302 300 299 299 299 299 300 301 302 303 306 306 303 304 305 305 305 304 302 300 297 295 293 291 289 288 286 285
298 299 302 303 307 311 298 301 302 300 299 298 297 297 297 297 297 296 296 296 296 296 298 298 297 298 300 302 304 302 302 301 300 300 299 296 294 293 290 289 287 286 285 284
295 297 294 294 297 295 296 293 292 296 297 294 294 294 294 295 294 294 294 295 295 294 294 294 293 295 300 303 302 302 303 301 298 297 297 295 292 290 288 287 285 284 283 283
289 291 292 290 292 290 290 292 293 291 291 290 291 290 290 291 292 293 293 293 293 294 294 294 293 296 301 303 303 303 303 303 300 297 295 293 292 289 286 285 284 283 283 283
290 290 288 289 289 290 290 290 289 288 288 287 286 285 286 288 288 289 289 290 290 291 292 292 294 295 294 294 295 296 295 297 300 298 296 292 289 287 285 284 284 283 283 284
289 289 289 289 290 287 288 286 286 286 284 283 282 282 282 282 282 282 283 284 286 287 289 290 291 292 292 292 293 294 295 296 295 294 294 293 289 286 284 284 281 280 283 282
Wind_Speed
9 4 10 23 16 9 5 7 7 16 9 7 15 18 20 26 24 26 37 42 42 46 50 45 42 41 41 42 42 44 43 40 39 39 40 41 41 39 38 35 33 31 28 25
3 13 18 6 7 12 11 15 14 12 13 10 12 19 18 10 19 28 30 38 46 50 49 42 37 37 45 45 45 44 43 41 40 40 40 41 40 38 36 33 33 32 29 28
18 8 17 14 12 9 18 12 20 18 11 6 9 12 12 12 23 28 38 45 48 48 44 38 32 36 43 48 47 45 43 40 41 40 40 41 37 36 37 40 39 36 33 31
11 15 13 7 8 14 23 10 11 8 3 14 5 20 9 7 14 13 30 40 46 43 40 35 33 36 43 49 47 44 40 39 41 41 41 43 44 44 45 44 40 37 35 34
9 3 8 14 24 10 23 6 9 2 5 5 5 8 4 9 9 11 16 35 45 44 41 31 31 34 38 48 46 42 38 39 42 42 41 43 45 44 43 41 38 37 36 34
11 1 4 7 2 6 2 1 0 2 2 13 9 10 4 7 11 7 15 32 40 38 36 24 28 32 38 45 44 41 40 43 43 43 42 43 44 45 43 41 40 39 37 36
4 14 9 6 4 2 3 5 4 4 0 12 12 11 23 7 6 11 14 30 35 36 26 18 23 35 37 43 44 42 43 45 45 45 44 42 42 44 42 41 42 42 41 40
3 14 11 8 20 10 10 13 6 8 8 18 5 9 6 12 15 27 35 35 33 28 17 20 27 29 33 38 41 43 45 45 46 46 46 45 44 43 42 42 44 44 42 39
6 10 1 3 1 10 4 6 13 2 2 3 11 14 9 4 10 9 21 24 24 26 24 25 26 25 27 33 39 41 43 44 47 48 48 47 47 46 43 42 44 44 41 38
7 12 7 1 1 2 5 0 2 2 4 8 16 13 17 15 18 17 8 14 27 24 24 23 23 23 26 31 34 37 40 42 45 47 50 50 48 47 46 44 43 43 41 41
5 6 19 4 7 9 1 4 5 2 4 15 19 17 4 10 9 9 9 22 22 20 21 21 20 21 25 29 33 34 38 41 44 47 49 52 50 50 50 47 44 43 43 43
4 3 4 13 8 7 6 11 14 10 12 5 9 15 28 16 8 7 6 11 18 17 15 13 15 19 23 28 32 34 38 42 42 46 50 51 53 52 51 49 47 43 42 42
7 4 5 4 14 5 6 8 7 8 1 15 17 18 26 17 14 7 11 18 11 13 16 21 19 24 32 37 38 38 40 40 42 46 48 50 52 52 51 50 48 43 41 42
16 9 12 15 16 7 11 12 7 11 13 23 21 29 29 32 29 28 34 40 47 42 41 30 29 35 36 37 38 39 40 38 42 46 48 49 50 49 50 50 48 43 40 41
10 11 19 28 33 32 30 32 32 25 27 23 28 20 26 34 24 26 37 37 30 31 25 24 26 30 38 42 42 43 45 44 44 47 48 48 47 48 49 49 46 41 38 40
10 17 18 20 23 28 32 32 32 31 30 26 29 31 37 40 50 41 50 44 27 32 36 42 39 38 42 41 43 43 44 45 45 47 48 46 46 47 47 46 44 41 39 40
17 10 16 29 22 23 21 32 35 35 28 25 27 34 36 33 29 31 41 32 30 37 39 40 42 43 42 38 38 40 38 40 43 45 46 46 45 45 45 44 43 42 41 41
20 19 13 19 17 23 22 22 31 34 35 33 32 31 29 30 41 40 38 38 38 36 34 34 34 39 44 37 34 33 33 34 38 41 42 42 43 44 44 43 43 42 42 42
20 16 10 10 15 19 8 17 23 24 33 31 29 26 28 37 38 35 22 22 27 30 34 36 37 35 31 27 26 28 29 31 34 36 38 40 42 45 44 44 43 42 42 42
13 17 14 16 17 17 5 17 26 21 17 15 15 17 14 12 6 6 29 30 33 32 30 26 20 18 19 22 22 24 28 29 31 33 37 39 40 43 42 42 42 39 39 40
11 10 18 19 21 14 11 15 19 5 3 10 15 13 15 6 10 23 40 42 39 40 39 36 33 32 27 20 19 18 23 28 28 31 34 37 40 41 41 41 41 40 42 42
11 5 11 9 17 21 30 5 13 11 6 17 23 18 16 22 25 29 35 42 49 48 46 41 41 40 34 31 22 19 19 24 28 29 32 36 38 40 41 41 42 42 44 44
7 4 5 4 8 22 17 24 38 24 20 18 24 29 28 27 27 30 32 35 39 36 36 38 38 37 35 33 24 20 23 23 28 30 32 34 36 39 41 42 44 46 47 44
6 12 8 15 6 26 34 27 21 25 23 29 27 33 29 28 30 34 32 34 36 38 35 36 36 31 28 29 28 26 30 32 30 32 34 36 37 41 42 43 43 47 48 46
10 14 8 17 16 23 23 26 23 30 26 26 35 38 33 29 31 31 34 35 36 37 38 35 35 38 37 34 37 36 35 40 37 37 36 37 39 41 43 46 48 51 46 40
14 15 12 17 23 13 27 30 24 19 28 33 29 34 39 34 34 36 36 37 36 35 34 33 39 38 46 39 41 41 41 39 42 41 40 42 44 44 47 50 51 48 43 41
Wind_Direction
201 155 204 223 206 234 222 258 252 266 260 188 233 241 252 256 257 249 256 259 261 263 270 268 263 256 245 236 233 232 230 227 227 226 223 224 227 227 232 234 235 236 237 237
251 221 226 244 206 232 245 257 262 271 260 189 249 245 257 242 248 248 246 254 259 265 267 268 261 252 235 234 231 229 231 230 229 230 229 228 232 231 237 239 238 238 237 238
222 219 219 224 239 262 248 252 261 262 292 248 286 271 241 242 242 250 256 260 263 262 264 262 252 245 233 226 227 229 230 231 231 230 228 228 228 232 233 234 235 236 235 237
245 237 232 193 216 206 258 219 248 254 255 272 144 291 220 245 242 238 247 254 260 262 261 263 249 237 230 228 226 229 231 233 230 229 227 228 229 229 234 236 238 238 237 237
239 221 207 234 237 201 263 224 241 211 236 318 194 277 178 197 241 244 243 248 257 267 269 258 240 237 231 224 224 228 231 230 229 229 229 230 233 235 241 240 240 237 237 236
246 232 240 213 149 196 167 140 184 53 81 264 180 205 189 189 215 230 242 253 263 262 264 251 242 228 224 220 223 226 228 227 227 228 230 231 233 235 236 237 236 236 235 235
310 230 220 161 192 274 169 88 300 310 3 256 180 218 250 287 255 212 227 243 247 244 257 237 226 214 219 221 221 225 225 225 226 228 230 231 234 237 237 240 240 237 235 234
241 284 164 185 206 194 200 202 182 214 254 275 133 246 252 215 237 240 242 243 237 243 231 224 228 219 222 223 224 223 223 225 228 229 231 232 234 239 239 239 241 241 240 240
215 263 289 156 145 160 182 171 217 325 85 356 268 271 290 283 267 259 240 238 237 236 226 221 225 227 227 224 225 225 226 229 230 231 231 234 236 239 240 241 243 242 241 239
232 265 226 170 165 344 184 224 104 212 204 246 268 271 274 284 271 256 274 230 244 231 215 220 226 232 233 235 231 229 232 235 236 235 235 236 237 240 241 243 244 243 240 236
8 292 273 109 194 182 129 259 246 295 203 250 261 271 219 254 249 253 245 245 230 220 226 233 237 243 243 240 236 233 235 238 239 238 239 239 239 239 240 242 244 243 240 237
145 201 257 275 278 234 258 236 232 239 255 237 271 264 262 273 280 261 333 285 260 239 224 243 263 253 254 247 242 240 241 242 245 243 241 241 241 241 241 243 243 242 239 237
152 210 234 264 289 248 211 200 217 243 247 245 257 262 269 283 281 285 293 262 248 256 277 282 266 267 268 259 249 247 248 251 250 246 244 241 243 243 243 242 242 239 237 235
168 196 207 241 244 271 266 272 251 238 252 254 245 260 271 269 265 274 274 261 265 274 280 274 272 265 260 258 258 258 254 257 254 250 246 244 243 244 243 243 241 236 235 234
192 237 226 235 242 245 246 254 256 251 245 245 253 247 257 264 275 270 272 267 265 268 271 263 259 265 273 268 264 262 255 255 255 251 247 245 245 243 242 242 239 235 233 232
208 243 242 238 229 234 244 252 255 255 254 253 253 262 260 262 263 265 268 269 274 266 265 269 267 273 273 267 266 267 263 260 255 248 248 246 243 242 241 239 236 233 230 229
235 225 231 250 231 236 243 235 239 247 247 243 246 241 250 261 260 263 274 287 270 265 262 264 271 276 277 274 268 260 260 260 255 248 244 243 241 241 239 236 231 229 228 226
269 261 243 245 248 240 238 225 228 239 247 254 250 256 252 254 262 265 271 275 284 280 274 272 277 282 287 287 275 268 254 250 246 242 241 241 240 238 235 232 228 226 225 223
228 242 260 263 250 255 247 220 231 235 249 254 266 263 257 265 265 274 303 337 331 311 296 289 288 292 297 295 280 261 247 239 240 243 241 239 238 235 231 228 226 224 221 219
248 242 254 270 275 267 80 353 327 271 259 7 12 20 4 343 251 286 8 357 351 360 7 359 348 337 322 310 292 263 250 241 240 243 240 238 236 234 231 229 224 222 222 220
294 289 264 256 261 261 9 338 309 233 29 2 348 357 345 1 0 331 327 329 331 333 335 335 336 338 338 334 310 279 264 255 247 244 241 237 234 232 228 227 220 217 214 213
286 293 283 287 274 267 357 6 345 348 307 1 327 340 333 316 312 317 313 313 319 319 321 321 320 319 319 313 315 297 282 271 259 251 244 238 232 229 225 222 220 213 210 209
292 4 321 305 311 314 321 310 307 309 319 322 322 324 313 305 313 309 306 305 308 308 311 311 308 314 310 305 299 294 301 288 273 260 250 242 236 231 226 220 217 210 206 207
285 294 294 312 295 301 302 321 325 332 336 333 329 321 321 321 319 310 309 305 307 309 310 309 307 300 295 299 297 293 285 280 272 261 255 248 237 230 223 219 216 212 207 203
266 297 285 288 286 299 301 315 326 326 323 325 317 318 316 314 307 302 302 297 295 297 299 298 296 292 288 288 286 281 281 281 266 254 250 248 240 233 224 220 212 208 211 210
258 262 270 279 291 306 301 315 321 310 319 321 322 314 312 309 303 305 300 303 299 294 294 292 288 285 284 283 284 281 277 269 264 254 247 241 234 229 223 216 206 206 205 211